Grizzly Air Cargo 5119


PAJN
Juneau International Airport
Juneau, Alaska, US
PASI
Sitka Rocky Gutierrez Airport
Sitka, Alaska, US

Activity Log

Date Flight Route Aircraft Duration
07/26/2019 GRZ513 RODMN1 RODMN B722 0h 37m
06/30/2019 GRZ513 RODMN1 RODMN B722 1h 01m
03/21/2019 GRZ513 MARMN HOODS B722 0h 30m

Route Details

Aircraft Information
Primary: Boeing 727-200F
Backup: Boeing 737-800BCF
Route Data
Distance: 97nm
Sched. Duration: 0h 35m
Avg. Duration: 0h 56m (+21m)
Times Flown: 3
Recm'd Route: RODMN1 RODMN
Planned Altitude: 16,000ft
Origin Wx: PAJN 290253Z VRB04KT 10SM SCT100 BKN120 BKN230 18/04 A2996 RMK AO2 SLP145 T01830039 55002
Dest. Wx: PASI 290301Z VRB03KT 5SM RA BR SCT008 BKN050 OVC060 11/09 A2995 RMK AO2 P0001 T01060089
Notes:

Financial History
Total Freight: 103,422lbs
Average Load: 34,474lbs/flt
Fuel Used: 14,406lbs
Avg. Fuel Used: 4,802lbs/flt
Fuel Expense: $15,414
Avg. Fuel Expense: $5,138
Avg. Fuel Cost: $1.07/lbs
Total Gross Income: $146,859
Pilot Pay: $687
Total Expenses: $16,017
Total Revenue: $114,918
Average Revenue: $48,953.08